Regional Weather Roundup
Issued by NWS

Home | Current Version | Previous Version | Text Only | Print | Product List | Glossary On
Versions: 1 2 3 4 5 6 7 8 9 10 11 12 13 14 15 16 17 18 19 20 21 22 23 24 25 26 27 28 29 30 31 32 33 34 35 36 37 38 39 40 41 42 43 44 45 46 47 48 49 50
000
ASUS43 KMKX 231421
RWRWI

WISCONSIN REGIONAL WEATHER ROUNDUP
NATIONAL WEATHER SERVICE MILWAUKEE/SULLIVAN WI
900 AM CDT THU OCT 23 2014

NOTE: "FAIR" INDICATES FEW OR NO CLOUDS BELOW 12,000 FEET WITH NO
SIGNIFICANT WEATHER AND/OR OBSTRUCTIONS TO VISIBILITY.

WIZ001-002-006>008-014>016-023>028-231500-
NORTHWEST WISCONSIN

CITY           SKY/WX    TMP DP  RH WIND       PRES   REMARKS
SUPERIOR ARPT  CLOUDY    49  48  96 SW3       29.98R
ASHLAND        CLOUDY    47  46  97 S5        30.00S
HAYWARD        CLOUDY    47  45  93 S8        30.00S
SIREN          CLOUDY    49  48  98 S5        30.00S FOG
CUMBERLAND     CLOUDY    45  45 100 S6        30.01R FOG
RICE LAKE      CLOUDY    47  45  93 SE5       30.03S FOG
CHETEK         CLOUDY    47  46  98 SE6       30.02S FOG
LADYSMITH      LGT RAIN  45  44  95 SE7       30.05S
EAU CLAIRE     LGT RAIN  48  46  93 S8        30.02S
MENOMONIE      RAIN      48  47  97 SE5       30.03R
NEW RICHMOND   CLOUDY    49  49 100 S5        30.01S FOG
OSCEOLA        CLOUDY    50  50 100 CALM      30.03R FOG
$$

WIZ003>005-009-010-017-018-231500-
NORTH CENTRAL WISCONSIN

CITY           SKY/WX    TMP DP  RH WIND       PRES   REMARKS
MANITOWISH WTR RAIN      42  41  96 S7        30.03S
ARBOR VITAE    DRIZZLE   44  41  89 S7        30.04S
WOODRUFF       DRIZZLE   44  41  89 S7        30.04S
RHINELANDER    CLOUDY    43  40  89 S5        30.06F
EAGLE RIVER    DRIZZLE   42  41  97 S5        30.05F
LAND O LAKES   LGT RAIN  44  40  86 S5        30.05F
PHILLIPS       CLOUDY    43  41  91 S6        30.03S
TOMAHAWK       CLOUDY    42  40  93 CALM      30.06F FOG
MEDFORD        LGT RAIN  41  39  94 SE8       30.05F
MERRILL        DRIZZLE   42  41  96 CALM      30.07F
$$

WIZ029-030-035-036-043>047-231500-
CENTRAL WISCONSIN

CITY           SKY/WX    TMP DP  RH WIND       PRES   REMARKS
WAUSAU         CLOUDY    42  39  89 SE7       30.07F
MOSINEE        DRIZZLE   43  41  93 SE7       30.08F
MARSHFIELD     LGT RAIN  44  40  85 S8        30.06F FOG
STEVENS POINT  CLOUDY    41  37  88 S6        30.10F
WAUPACA        CLOUDY    40  39  95 SE5       30.13F FOG
WAUTOMA        CLOUDY    41  37  87 CALM      30.12F
WISC RAPIDS    NOT AVBL
CAMP DOUGLAS   LGT RAIN  48  43  81 S7        30.08S FOG
$$

WIZ011>013-019>022-031-037>040-048>050-231500-
NORTHEAST WISCONSIN

CITY           SKY/WX    TMP DP  RH WIND       PRES   REMARKS
ANTIGO         CLOUDY    38  37  97 S7        30.09F FOG     WCI  33
SHAWANO        CLOUDY    40  38  94 S5        30.14S
OCONTO         SUNNY     43  42  99 CALM      30.15F
STURGEON BAY   SUNNY     46  41  81 S13       30.17S
GREEN BAY      MOSUNNY   44  38  79 S8        30.16S
MANITOWOC      SUNNY     45  42  89 S10       30.18F
APPLETON       MOSUNNY   43  36  75 S8        30.15F
CLINTONVILLE   PTSUNNY   37  37 100 S5        30.13F WCI  34
OSHKOSH        CLOUDY    42  38  85 S6        30.14F
$$

WIZ032>034-041-042-053>061-231500-
SOUTHWEST WISCONSIN

CITY           SKY/WX    TMP DP  RH WIND       PRES   REMARKS
LA CROSSE      CLOUDY    49  46  90 S10       30.06R
SPARTA         DRIZZLE   47  44  90 CALM      30.08R
VIROQUA        CLOUDY    44  44  97 SE6       30.07S
BOSCOBEL       LGT RAIN  47  42  83 CALM      30.11R
PRAIRIE DU CHI RAIN      47  42  82 SE5       30.10R
PLATTEVILLE    CLOUDY    46  39  77 SE10      30.11F
$$

WIZ056-057-062-063-064-067-068-231500-
SOUTH CENTRAL WISCONSIN

CITY           SKY/WX    TMP DP  RH WIND       PRES   REMARKS
REEDSBURG      CLOUDY    46  37  71 CALM      30.10S
BARABOO/DELLS  CLOUDY    46  35  67 S9        30.10S
LONE ROCK      CLOUDY    50  37  61 E8        30.12S
MINERAL POINT  CLOUDY    45  36  70 SE13      30.11S
MADISON        PTSUNNY   45  37  73 S12       30.15F
MIDDLETON      CLOUDY    47  37  67 S7        30.12F
WATERTOWN      MOSUNNY   40  37  90 S5        30.16S
MONROE         PTSUNNY   43  37  81 S9        30.14F
JANESVILLE     SUNNY     46  37  71 S7        30.17S
$$

WIZ051-052-058>065-066-070>072-231500-
SOUTHEAST WISCONSIN

CITY           SKY/WX    TMP DP  RH WIND       PRES   REMARKS
MILWAUKEE      PTSUNNY   43  38  82 S6        30.20F
WAUKESHA       SUNNY     39  36  87 S7        30.19F WCI  34
MILWAUKEE/TIMM SUNNY     41  37  87 S5        30.20F
RACINE         SUNNY     45  39  79 SW5       30.22S
BURLINGTON     SUNNY     38  38 100 S5        30.19F FOG     WCI  34
KENOSHA        SUNNY     42  38  85 CALM      30.21S
FOND DU LAC    CLOUDY    44  37  76 S7        30.15F
SHEBOYGAN      MOSUNNY   41  39  93 S5        30.18F
WEST BEND      MOSUNNY   43  37  81 S5        30.17F
JUNEAU         PTSUNNY   42  38  84 SE9       30.16F
$$

LSZ147-162-231500-
LAKE SUPERIOR

STATION/POSITION TIME  TEMP    WIND        PRES    WAVE
                       AIR SEA DIR/SP/G            HT/PER
                 (UTC) (F)     (DEG/KT/KT) (MB)    (FT/S)
W MID LAKE BUOY  1350   48 46  180/ 12/ 14 1016.1F   2/ 4
DEVILS ISLAND    1400   48     180/  7/  9 1016.1R
PORT WING        1300   49     180/  4/  6 1015.2S
SAXON HARBOR     1300   49     200/  3/  7 1015.6F
$$

LMZ867-665-643>646-231500-
LAKE MICHIGAN

STATION/POSITION TIME  TEMP    WIND        PRES    WAVE
                       AIR SEA DIR/SP/G            HT/PER
                 (UTC) (F)     (DEG/KT/KT) (MB)    (FT/S)
CHAMBERS ISLAND  1300   48     160/  5/ 11 1021.3F
N MID LAKE BUOY  1350   48 51  200/ 16/ 17 1022.1F   3/ 5
NORTHPORT PIER   1300   46     180/  2/  6 1021.7S
SISTER BAY       1243          180/  9/ 11   N/A
ALGOMA LAKESHORE 1326          240/ 12/ 13   N/A
KEWAUNEE LAKESHO 1300   44     190/  7/  9 1021.2S
SHEBOYGAN LAKESH 1400   48 50  180/ 13/ 14 1022.6F
PORT WASHINGTON  1300   45     200/  2/  3 1023.4S
ATWATER BUOY     1400   46     160/ 12/ 14 1023.3
MILWAUKEE LAKESH 1400   45     210/  8/ 10   N/A
S MID LAKE BUOY  1350   51 54  200/ 12/ 14 1023.6R   2/ 4
KENOSHA   LAKESH 1400   46     200/  6/  9 1022.7F
$$

TC  - TEMPERATURE IN CELSIUS
VSB - VISIBILITY IN STATUTE MILES
WCI - WIND CHILL INDEX
HX  - HEAT INDEX




USA.gov is the U.S. government's official web portal to all federal, state and local government web resources and services.